COSMOS 2084

Last updated on Tue Sep 22 2026 00:02:19 GMT+0000 (Coordinated Universal Time)

1 20663U 90055A 26264.38818722 .00001332 00000+0 10347-3 0 9991 2 20663 62.7902 27.6527 0018140 350.1520 9.9222 15.06446870965795
UTC large
Height (km)
Speed (km/s)
/
Latitude / Longitude
Inclination (degrees)
Orbital Period (minutes)
Azimuth
Elevation
Range (km)
Doppler Factor

Next 0 passes for location: London (51.5072 / 0.1276)

No passes found over London.
COSMOS 2084